DW5338 Weather Reports


Display with metric or nautical units.
time (UTC)temp
F
wind
direction
speed
MPH
gust
MPH
rain 1hr
in
rain 24hr
in
rain mn
in
humidity
%
barometer
mb
20260903195020 72 45 8.0 18.0 0.00 0.03 0.00 30 1024.2
20260903194015 72 68 5.0 14.0 0.00 0.03 0.00 30 1024.3
20260903193015 71 68 5.0 12.0 0.00 0.03 0.00 31 1024.1
20260903192020 72 45 5.0 12.0 0.00 0.03 0.00 31 1024.1
20260903191015 73 45 1.0 2.0 0.00 0.03 0.00 30 1024.3
20260903190017 74 90 4.0 13.0 0.00 0.03 0.00 30 1024.4
20260903185022 74 23 5.0 13.0 0.00 0.03 0.00 29 1024.2
20260903184017 75 135 3.0 11.0 0.00 0.03 0.00 26 1024.5
20260903183022 73 293 3.0 8.0 0.00 0.03 0.00 28 1024.2
20260903182017 73 270 2.0 5.0 0.00 0.03 0.00 28 1024.5
20260903181022 74 135 1.0 4.0 0.00 0.03 0.00 28 1024.8
20260903180022 72 180 3.0 7.0 0.00 0.03 0.00 29 1024.8
20260903175042 72 248 3.0 7.0 0.00 0.03 0.00 31 1024.7
20260903174016 70 293 2.0 6.0 0.00 0.03 0.00 32 1024.6
20260903173042 69 293 5.0 10.0 0.00 0.03 0.00 32 1024.7
20260903172022 69 270 7.0 13.0 0.00 0.03 0.00 32 1024.5
20260903171022 69 270 9.0 19.0 0.00 0.03 0.00 32 1024.5
20260903170036 70 270 3.0 14.0 0.00 0.03 0.00 32 1024.7
20260903165042 69 293 4.0 15.0 0.00 0.03 0.00 32 1024.5
20260903164037 68 270 3.0 12.0 0.00 0.03 0.00 35 1024.6
20260903163016 67 248 8.0 15.0 0.00 0.03 0.00 33 1024.3
20260903162042 68 225 6.0 17.0 0.00 0.03 0.00 34 1024.2
20260903161016 67 248 8.0 16.0 0.00 0.03 0.00 36 1024.3
20260903160022 66 203 8.0 14.0 0.00 0.03 0.00 36 1024.2
20260903155017 66 225 9.0 18.0 0.00 0.03 0.00 37 1024.1
20260903154017 66 180 4.0 10.0 0.00 0.03 0.00 41 1024.2
20260903153042 65 203 5.0 12.0 0.00 0.03 0.00 40 1024.1
20260903152022 65 203 6.0 10.0 0.00 0.03 0.00 40 1024.1
20260903151016 64 180 5.0 11.0 0.00 0.03 0.00 42 1023.9
20260903150022 64 180 5.0 13.0 0.00 0.03 0.00 44 1023.9
20260903145016 63 180 6.0 13.0 0.00 0.03 0.00 44 1023.9
20260903144016 63 180 6.0 11.0 0.00 0.03 0.00 44 1023.8
20260903143017 62 180 8.0 15.0 0.00 0.03 0.00 44 1023.6
20260903142020 62 180 7.0 13.0 0.00 0.03 0.00 45 1023.8
20260903141016 62 203 8.0 16.0 0.00 0.03 0.00 46 1023.8
20260903140022 61 180 6.0 14.0 0.00 0.03 0.00 47 1023.7
20260903135036 61 225 5.0 13.0 0.00 0.03 0.00 48 1023.9
20260903134022 60 203 4.0 8.0 0.00 0.03 0.00 49 1023.6
20260903133016 59 203 4.0 10.0 0.00 0.03 0.00 50 1023.4
20260903132022 59 203 5.0 12.0 0.00 0.03 0.00 50 1023.6
20260903131017 58 203 5.0 9.0 0.00 0.03 0.00 52 1023.3
20260903130022 57 203 5.0 9.0 0.00 0.03 0.00 53 1023.3
20260903125016 57 203 5.0 10.0 0.00 0.03 0.00 54 1023.1
20260903124022 56 203 5.0 8.0 0.00 0.03 0.00 55 1023.0
20260903123017 56 225 4.0 8.0 0.00 0.03 0.00 54 1023.0
20260903122022 55 203 5.0 8.0 0.00 0.03 0.00 56 1022.9
20260903121022 55 203 4.0 8.0 0.00 0.03 0.00 56 1022.9
20260903120022 54 225 5.0 8.0 0.00 0.03 0.00 58 1022.7
20260903115042 54 203 4.0 8.0 0.00 0.03 0.00 59 1022.1
20260903114022 54 203 4.0 7.0 0.00 0.03 0.00 60 1022.2
20260903113022 54 225 4.0 7.0 0.00 0.03 0.00 59 1022.1
20260903112017 54 225 4.0 6.0 0.00 0.03 0.00 59 1021.9
20260903111022 54 225 4.0 6.0 0.00 0.03 0.00 60 1021.8
20260903110022 55 225 4.0 6.0 0.00 0.03 0.00 58 1022.1
20260903105022 55 225 3.0 6.0 0.00 0.03 0.00 58 1023.0
20260903104042 54 225 4.0 6.0 0.00 0.03 0.00 59 1022.8
20260903103016 55 225 4.0 7.0 0.00 0.03 0.00 59 1022.9
20260903102016 55 225 4.0 6.0 0.00 0.03 0.00 58 1023.0
20260903101016 55 203 4.0 5.0 0.00 0.03 0.00 58 1022.9
20260903100016 56 225 4.0 6.0 0.00 0.03 0.00 58 1023.3
20260903095022 56 225 5.0 8.0 0.00 0.03 0.00 57 1023.4
20260903094042 57 225 5.0 10.0 0.00 0.03 0.00 55 1023.6
20260903093016 57 203 4.0 7.0 0.00 0.03 0.00 54 1023.5
20260903092036 58 225 4.0 8.0 0.00 0.03 0.00 54 1023.8
20260903091022 57 225 5.0 8.0 0.00 0.03 0.00 54 1023.6
20260903090036 57 203 5.0 11.0 0.00 0.03 0.00 54 1023.5
20260903085021 56 225 6.0 10.0 0.00 0.03 0.00 54 1023.3
20260903084101 57 225 5.0 9.0 0.00 0.03 0.00 52 1023.3
20260903083041 57 225 6.0 11.0 0.00 0.03 0.00 51 1023.3
20260903082021 56 225 5.0 9.0 0.00 0.03 0.00 51 1023.1
20260903081036 56 203 5.0 9.0 0.00 0.03 0.00 52 1023.2
20260903080021 57 203 5.0 8.0 0.00 0.03 0.00 50 1023.5
20260903075016 58 225 5.0 7.0 0.00 0.03 0.00 49 1023.6
20260903074021 59 203 4.0 6.0 0.00 0.03 0.00 48 1023.7
20260903073022 60 225 4.0 6.0 0.00 0.03 0.00 44 1023.9
20260903072036 62 203 3.0 5.0 0.00 0.03 0.00 42 1024.0
20260903071016 61 203 3.0 5.0 0.00 0.03 0.00 43 1024.1
20260903070022 61 203 3.0 4.0 0.00 0.03 0.00 44 1024.1
20260903065021 61 225 3.0 5.0 0.00 0.03 0.00 45 1024.4
20260903064016 60 270 4.0 7.0 0.00 0.03 0.00 48 1024.3
20260903063021 60 203 3.0 6.0 0.00 0.03 0.00 48 1024.2
20260903062016 59 225 3.0 7.0 0.00 0.03 0.00 51 1024.0
20260903061016 59 203 4.0 8.0 0.00 0.03 0.00 53 1023.9
20260903060016 60 225 4.0 6.0 0.00 0.03 0.03 51 1023.9
20260903055021 60 225 2.0 4.0 0.00 0.03 0.03 49 1023.9
20260903054041 60 248 1.0 3.0 0.00 0.03 0.03 49 1023.9
20260903053016 61 225 2.0 4.0 0.00 0.03 0.03 48 1023.9
20260903052021 61 225 1.0 2.0 0.00 0.03 0.03 48 1024.5
20260903051021 62 270 2.0 4.0 0.00 0.03 0.03 47 1024.5
20260903050021 61 225 1.0 2.0 0.00 0.03 0.03 48 1024.3
20260903045021 61 203 2.0 4.0 0.00 0.03 0.03 49 1024.1
20260903044021 60 180 2.0 4.0 0.00 0.03 0.03 50 1024.0
20260903043021 60 113 1.0 3.0 0.00 0.03 0.03 52 1024.3
20260903042041 60 180 2.0 3.0 0.00 0.03 0.03 53 1024.5
20260903041016 60 180 2.0 4.0 0.00 0.03 0.03 52 1024.3
20260903040041 60 203 2.0 5.0 0.00 0.03 0.03 51 1024.3
20260903035021 60 180 2.0 5.0 0.00 0.03 0.03 51 1024.1
20260903034021 61 203 4.0 8.0 0.00 0.03 0.03 50 1024.2
20260903033021 61 225 6.0 10.0 0.00 0.03 0.03 48 1024.2
20260903032021 61 225 5.0 9.0 0.00 0.03 0.03 50 1024.2
20260903031021 61 225 4.0 7.0 0.00 0.03 0.03 49 1024.3
20260903030021 61 225 5.0 9.0 0.00 0.03 0.03 49 1024.3
20260903025021 61 225 4.0 7.0 0.00 0.03 0.03 51 1023.9
20260903024015 61 225 4.0 8.0 0.00 0.03 0.03 51 1023.9
20260903023021 61 225 5.0 9.0 0.00 0.03 0.03 50 1023.7
20260903022021 61 225 4.0 7.0 0.00 0.03 0.03 50 1023.5
20260903021015 62 225 4.0 9.0 0.00 0.03 0.03 49 1023.7
20260903020021 62 225 4.0 8.0 0.00 0.03 0.03 47 1023.6
20260903015021 63 248 5.0 10.0 0.00 0.03 0.03 46 1023.3
20260903014021 63 225 5.0 11.0 0.00 0.03 0.03 50 1023.3
20260903013015 63 203 5.0 10.0 0.00 0.03 0.03 51 1023.4
20260903012021 63 225 4.0 9.0 0.00 0.03 0.03 50 1023.2
20260903011015 64 203 4.0 7.0 0.00 0.03 0.03 48 1023.2
20260903010041 64 203 4.0 8.0 0.00 0.03 0.03 47 1023.1
20260903005021 65 225 3.0 6.0 0.00 0.03 0.03 48 1023.3
20260903004021 65 270 6.0 10.0 0.00 0.03 0.03 45 1023.2
20260903003015 65 270 7.0 12.0 0.00 0.03 0.03 47 1023.4
20260903002021 66 203 5.0 10.0 0.00 0.03 0.03 49 1023.7
20260903001021 66 225 2.0 4.0 0.00 0.03 0.03 47 1023.4
20260903000016 67 203 2.0 6.0 0.01 0.03 0.03 47 1023.3
20260902235041 67 270 1.0 3.0 0.01 0.03 0.03 45 1023.1
20260902234021 66 293 3.0 4.0 0.01 0.03 0.03 48 1023.1
20260902233015 65 293 4.0 6.0 0.03 0.03 0.03 50 1023.0
20260902232015 63 270 4.0 10.0 0.03 0.03 0.03 59 1023.1
20260902231021 60 203 5.0 8.0 0.03 0.03 0.03 68 1023.3
20260902230015 60 203 4.0 8.0 0.02 0.02 0.02 59 1023.6
20260902225021 61 158 2.0 6.0 0.02 0.02 0.02 58 1023.6
20260902224101 63 180 9.0 18.0 0.02 0.02 0.02 52 1023.5
20260902223021 69 180 2.0 5.0 0.00 0.00 0.00 38 1023.8
20260902222015 69 270 3.0 9.0 0.00 0.00 0.00 36 1023.3
20260902221021 70 315 7.0 10.0 0.00 0.00 0.00 35 1023.1
20260902220021 70 315 4.0 6.0 0.00 0.00 0.00 34 1023.0
20260902215021 70 45 1.0 3.0 0.00 0.00 0.00 36 1023.5
20260902214015 70 113 5.0 10.0 0.00 0.00 0.00 34 1023.4
20260902213055 70 68 4.0 10.0 0.00 0.00 0.00 33 1023.5
20260902212021 71 113 4.0 9.0 0.00 0.00 0.00 33 1023.5
20260902211021 72 135 4.0 11.0 0.00 0.00 0.00 32 1023.7
20260902210021 73 90 4.0 11.0 0.00 0.00 0.00 31 1024.1
20260902205020 72 135 4.0 11.0 0.00 0.00 0.00 33 1023.9
20260902204020 71 45 6.0 14.0 0.00 0.00 0.00 35 1024.1
20260902203021 70 68 6.0 12.0 0.00 0.00 0.00 35 1024.1
20260902202035 70 45 4.0 10.0 0.00 0.00 0.00 35 1024.4
20260902201020 70 113 2.0 4.0 0.00 0.00 0.00 34 1024.3
20260902200021 69 68 3.0 7.0 0.00 0.00 0.00 35 1024.4